User: anonymous   Login
Location: Whitehorse
(60.7170°N, 135.0500°W)
Time: 02:54:24
(UTC-07:00)
Language:

Cosmos 2219 Rocket - Orbit

View from above orbital plane
View from above orbital plane
View from above satellite
View from above satellite

Ground track
Ground track

The orbit data is extracted from the following two-line orbital elements,

1 22220U 92076B   16121.54381737 -.00000248  00000-0 -10081-3 0  9990
2 22220  71.0009 207.8244 0013191 191.9717 258.4872 14.16396420212348
Epoch (UTC): 30 April 2016 13:03:05
Eccentricity: 0.0013191
inclination: 71.0009°
perigee height: 828 km
apogee height: 847 km
right ascension of ascending node: 207.8244°
argument of perigee: 191.9717°
revolutions per day: 14.16396420
mean anomaly at epoch: 258.4872°
orbit number at epoch: 21234

The dashed part of the orbit path shows where the satellite is in the earth's shadow,  

DLR